Regional Weather Roundup
Issued by NWS

Home | Current Version | Previous Version | Text Only | Print | Product List | Glossary On
Versions: 1 2 3 4 5 6 7 8 9 10 11 12 13 14 15 16 17 18 19 20 21 22 23 24 25 26 27 28 29 30 31 32 33 34 35 36 37 38 39 40 41 42 43 44 45 46 47 48 49 50
000
ASUS44 KMEG 270310
RWRTN
TENNESSEE HOURLY STATE WEATHER ROUNDUP
NATIONAL WEATHER SERVICE MEMPHIS TN
1000 PM CDT TUE JUL 26 2016

TNZ002-004-019-021-049-052-054-088>092-270400-
WEST TENNESSEE

CITY           SKY/WX    TMP DP  RH WIND       PRES   REMARKS
MEMPHIS INTL   PTCLDY    86  74  67 NE7       29.97R HX  94
NWS MEMPHIS      N/A     83 N/A N/A MISG        N/A
JACKSON        CLOUDY    76  73  91 SE5       29.99R
DYERSBURG      CLOUDY    79  72  78 MISG      29.98S
UNION CITY     CLEAR     77  73  88 E3        29.97F
PARIS            N/A     73  72  94 CALM      30.00F
LEXINGTON      PTCLDY    75  72  88 W3        30.01R
$$

TNZ008-025-027-028-033-062-065-066-270400-
NORTH MIDDLE TENNESSEE

CITY           SKY/WX    TMP DP  RH WIND       PRES   REMARKS
NASHVILLE      CLOUDY    77  70  79 SW3       30.01S
CLARKSVILLE    LGT RAIN  79  73  82 NW6       30.01R
SMYRNA         CLOUDY    80  71  74 CALM      30.02R
COOKEVILLE     PTCLDY    79  75  89 CALM      30.03R
CROSSVILLE     PTCLDY    78  72  81 CALM      30.09R
$$

TNZ061-075-076-078-094-096-097-270400-
SOUTH MIDDLE TENNESSEE

CITY           SKY/WX    TMP DP  RH WIND       PRES   REMARKS
FAYETTEVILLE   CLEAR     81  72  74 NE6       30.03R
TULLAHOMA      PTCLDY    79  70  73 N6        30.06R
WINCHESTER     CLEAR     81  73  78 CALM      30.04R
MCMINNVILLE    CLEAR     79  75  89 SW5       30.05R
COLUMBIA       CLEAR     79  79 100 CALM      30.01R
SHELBYVILLE    CLOUDY    75  75 100 NE7       30.04F
$$

TNZ017-018-042-046-047-270400-
NORTHEAST TENNESSEE

CITY           SKY/WX    TMP DP  RH WIND       PRES   REMARKS
TRI CITIES     PTCLDY    75  69  81 CALM      30.07R
ELIZABETHTON   CLOUDY    73  72  94 E5        30.07S
$$

TNZ012-013-036-069-073-074-270400-
CENTRAL EAST TENNESSEE

CITY           SKY/WX    TMP DP  RH WIND       PRES   REMARKS
KNOXVILLE      LGT RAIN  82  73  74 SW6       30.03R
OAK RIDGE      CLOUDY    84  69  60 CALM      30.05R
GATLINBURG     PTCLDY    79  70  73 CALM      30.03R
MORRISTOWN     MOCLDY    81  72  74 SW5       30.04R
$$

TNZ083-085-099-270400-
SOUTHEAST TENNESSEE

CITY           SKY/WX    TMP DP  RH WIND       PRES   REMARKS
CHATTANOOGA    CLEAR     84  71  65 E5        30.02R
$$

SKY/WX REPORTED AS FAIR MEANS FEW OR NO CLOUDS BELOW
12 THOUSAND FEET.





USA.gov is the U.S. government's official web portal to all federal, state and local government web resources and services.